Voltar ao catálogo

STARLINK-3821

AtivoComunicaçõesVLEO
NORAD 52357·PAYLOAD·🇺🇸 United States

Lançado Apr 29, 2022 de Cape Canaveral Space Force Station

Loading…

Próximas Passagens (próximas 24 horas)

TLE

AtualizadoSource: CelesTrak SupGP

Época: Sep 15, 2026, 01:09 UTC

1 52357C 22045AC  26258.04840278 -.00027184  00000+0 -80336-3 0  2585
2 52357  53.1591  54.9909 0000944  75.2746 269.3252 15.34396194    17

Acompanhe STARLINK-3821 em tempo real com AllMySat

Download on the App Store